www.pogodaiklimat.ru

Погода и климат >> Архив погоды >> Парагвай >> Puerto Casado


ПОГОДА в Puerto Casado

  • Прогноз погоды в Puerto Casado
  • Монитор погоды в Puerto Casado
  • Климат города

АРХИВ ПОГОДЫ в Puerto Casado

Время (UTC), дата Ветер
(напр.,м/с)
 
Видим.   Явления Облачность Т
(С)
Тd
(С)
f
(%)
Тe
(С)
Тes
(С)
Комфортность P
(гПа)
Po
(гПа)
Тmin
(С)
Tmax
(С)
R
(мм)
R24
(мм)
S
(см)
03 16.06 Ю 3 20 км 10/0
[Cs]
+11.0 +8.5 85 +9 +9 1029.5 1020.0
06 16.06 Ю 3 20 км 10/0
[Ac As]
+10.8 +7.5 80 +9 +9 1029.9 1020.4
09 16.06 Ю 3 20 км 10/0
[Ac As]
+10.0 +8.2 89 +8 +8 1029.0 1019.4
12 16.06 штиль 0 20 км 6/0
[Cs]
+9.0 +8.6 97 +8 +10 1029.2 1019.6 +9.0
15 16.06 Ю 3 20 км 8/0
[Ac trans Cs]
+14.8 +7.0 60 +14 +21 1029.2 1019.8
18 16.06 Ю 3 20 км 9/0
[Ac und]
+17.4 +5.9 47 +17 +20 1027.2 1017.9
21 16.06 Ю 2 20 км 8/0 2000 м
[Ac und]
+16.2 +5.3 48 +17 +17 1024.9 1015.6
00 17.06 штиль 0 20 км ясно +12.4 +7.7 73 +12 +12 1026.3 1016.8 +17.8
03 17.06 штиль 0 20 км ясно +12.0 +7.9 76 +12 +12 1027.3 1017.8
09 17.06 штиль 0 20 км ясно +9.8 +8.6 92 +9 +9 1028.8 1019.2
12 17.06 Ю 3 20 км 8/0
[Ac und]
+9.2 +7.1 87 +7 +7 1027.8 1018.2 +8.4
15 17.06 Ю 2 20 км 10/0
[Ac As]
+11.6 +7.9 78 +10 +13 1028.9 1019.4
21 17.06 Ю 1 20 км 9/0 2000 м
[Ac As]
+14.0 +7.9 67 +14 +14 1027.0 1017.6
00 18.06 штиль 0 20 км 8/0 2000 м
[Ac As]
+13.0 +6.7 66 +13 +13 1027.2 1017.8 +15.0
03 18.06 штиль 0 20 км 8/0 2000 м
[Ac As]
+12.0 +7.9 76 +12 +12 1027.3 1017.8
09 18.06 штиль 0 20 км ясно +10.0 +8.3 89 +9 +9 1027.2 1017.6
12 18.06 Ю 1 20 км 5/0 2000 м
[Ac trans]
+11.0 +9.0 87 +11 +12 1027.9 1018.4 +9.0
15 18.06 Ю 1 20 км 3/0
[Ci]
+19.0 +9.5 54 +21 +32 комфорт 1027.1 1017.8
18 18.06 Ю 1 20 км 3/0
[Ci]
+24.2 +13.6 52 +26 +34 жарко 1024.3 1015.3
21 18.06 штиль 0 20 км ясно +25.0 +13.1 48 +27 +27 жарко 1022.6 1013.6
00 19.06 штиль 0 20 км ясно +18.6 +9.9 57 +19 +19 1022.6 1013.3 +25.0
06 19.06 штиль 0 20 км ясно +14.8 +9.5 71 +15 +15 1023.8 1014.4
09 19.06 штиль 0 20 км ясно +13.4 +10.7 84 +13 +13 1021.9 1012.5
12 19.06 штиль 0 20 км ясно +15.0 +10.1 72 +15 +17 1021.7 1012.3 +11.0
15 19.06 В 1 20 км ясно +26.0 +16.2 55 +29 +41 душно 1021.7 1012.7
18 19.06 В 1 20 км ясно +30.0 +15.4 41 +33 +41 душно 1018.8 1009.9
21 19.06 В 1 20 км ясно +28.0 +18.7 57 +33 +33 очень
душно
1016.5 1007.6
00 20.06 штиль 0 20 км ясно +21.0 +17.1 78 +25 +25 комфорт 1016.9 1007.7 +31.0
03 20.06 штиль 0 20 км ясно +20.0 +16.7 81 +22 +22 комфорт 1016.9 1007.7
09 20.06 штиль 0 20 км ясно +17.0 +15.3 90 +17 +17 1018.4 1009.1
12 20.06 В 1 20 км 3/0
[Ci]
+20.6 +16.3 76 +25 +27 комфорт 1019.3 1010.1 +15.0
15 20.06 В 2 20 км 3/0
[Ci]
+28.4 +16.5 48 +32 +42 душно 1018.5 1009.6
18 20.06 В 2 20 км 4/0
[Ci]
+31.0 +16.7 42 +34 +41 душно 1016.3 1007.4
21 20.06 В 1 20 км 4/0
[Ci]
+29.8 +14.2 39 +32 +32 душно 1015.4 1006.4
00 21.06 штиль 0 20 км ясно +24.0 +19.3 75 +29 +29 душно 1016.5 1007.4 +31.0
03 21.06 штиль 0 20 км ясно +21.0 +17.8 82 +25 +25 комфорт 1017.0 1007.8
06 21.06 штиль 0 20 км ясно +19.0 +17.3 90 +20 +20 1015.8 1006.6
09 21.06 штиль 0 20 км ясно +19.0 +17.3 90 +20 +20 1015.8 1006.6
12 21.06 В 1 20 км 4/0
[Ci]
+19.0 +14.1 73 +21 +23 комфорт 1016.1 1006.9 +16.0
15 21.06 В 1 20 км 4/0
[Ci]
+28.0 +16.8 51 +32 +43 душно 1016.6 1007.7
18 21.06 В 1 20 км 5/1 800 м
[Cu hum Ci]
+31.6 +16.3 40 +35 +42 очень
душно
1014.3 1005.4
21 21.06 В 1 20 км 5/0
[Ci]
+30.0 +17.4 47 +34 +34 очень
душно
1013.6 1004.8
00 22.06 штиль 0 20 км ясно +22.4 +18.6 79 +28 +28 душно 1016.5 1007.4 +32.0
03 22.06 штиль 0 20 км 4/0
[Ac und]
+20.0 +16.8 82 +22 +22 комфорт 1016.0 1006.8
09 22.06 штиль 0 20 км ясно +17.6 +14.8 84 +18 +18 1015.1 1005.7
12 22.06 В 1 20 км 4/0 2000 м
[Ac trans]
+20.0 +15.6 76 +24 +25 комфорт 1015.9 1006.7 +17.0
15 22.06 В 1 20 км ясно +28.2 +15.4 46 +31 +43 душно 1014.5 1005.6
18 22.06 С 1 20 км ясно +31.0 +16.7 42 +34 +43 душно 1013.3 1004.4
00 23.06 штиль 0 20 км ясно +22.6 +18.5 78 +28 +28 душно 1011.3 1002.2 +31.0

 

Местоположение метеостанции Puerto Casado (Парагвай): широта -22.28 долгота -57.86 высота над уровнем моря 87 м.

В архиве по умолчанию представлена погода в Puerto Casado за последнюю неделю. Архивные данные за месяц целиком и за предыдущие месяцы, начиная с января 2011 года, Вы можете получить, выбрав интересующий диапазон дат из раскрывающегося списка и нажав кнопку "Ввод!".


*Определитесь, кто Вы:
робот инопланетянин человек

Внимание! Время в таблицах - всемирное. Для получения местного времени необходимо прибавить поправку, которая в Puerto Casado равна -4 ч.

Смотрите также архив погоды в соседних городах и на ближайших метеорологических станциях:

Погода в Concepcion (Парагвай) (138 км)
Погода в Pozo Colorado (Парагвай) (162 км)
Погода в San Pedro (Парагвай) (213 км)
Погода в Pedro Juan Caballer (Парагвай) (222 км)
Погода в Ponta Pora (Бразилия) (224 км)
Погода в Ponta Pora (Бразилия) (241 км)
Погода в Miranda (Бразилия) (256 км)
Погода в Amambai (Бразилия) (272 км)
Погода в Mariscal Estigar (Парагвай) (284 км)
Погода в Maracaju (Бразилия) (286 км)

Пояснения к столбцам:

Ветер - указаны скорость ветра в м/с - средняя за 10 мин, порывы в срок и между сроками (в фигурных скобках) и направление, откуда дует ветер: С - северный, СВ - северо-восточный, В - восточный, ЮВ - юго-восточный, Ю - южный, ЮЗ - юго-западный, З - западный, СЗ - северо-западный.
Видимость - горизонтальная дальность видимости в метрах или километрах. При видимости от 1 до 10 км при отсутствии осадков обычно наблюдается дымка, при ухудшении видимости до 1 км и менее - туман. В сухую погоду видимость может ухудшаться дымом, пылью или мглою.
Явления - указаны атмосферные явления, наблюдавшиеся в срок или в последний час перед сроком; фигурными скобками обозначены явления, наблюдавшиеся между сроками (за 1-3 часа до срока); квадратными скобками обозначены град или гололедные отложения с указанием их диаметра в мм.
Облачность - указаны через наклонную черту общая и нижняя облачность в баллах и высота нижней границы облаков в метрах; квадратными скобками обозначены формы облаков: Ci - перистые, Cs - перисто-слоистые, Cc - перисто-кучевые, Ac - высококучевые, As - высокослоистые, Sc - слоисто-кучевые, Ns - слоисто-дождевые, Cu - кучевые, Cb - кучево-дождевые. Подробнее классификацию облаков см. в Атласе облаков (PDF).
T - Температура воздуха - температура, измеренная на высоте 2 м над землей.
Td - Температура точки росы - температура, при понижении до которой содержащийся в воздухе водяной пар достигнет насыщения.
f - Относительная влажность воздуха - влажноcть воздуха, измеренная на высоте 2 м над землей.
Te - Эффективная температура - температура, которую ощущает одетый по сезону человек в тени. Характеристика душности погоды. При расчете учитывается влияние влажности воздуха и скорости ветра на теплоощущения человека.
Tes - Эффективная температура на солнце - температура, которую ощущает человек, с поправкой на солнечный нагрев. Характеристика знойности погоды. Зависит от высоты солнца над горизонтом, облачности и скорости ветра. Ночью, в пасмурную погоду, а также при ветре 12 м/с и более поправка равна нулю.
P - Атмосферное давление - приведенное к уровню моря атмосферное давление.
Po - Атмосферное давление - измеренное на уровне метеостанции атмосферное давление.
Tmin - Минимальная температура - минимум температуры воздуха на высоте 2 м над землей.
Tmax - Максимальная температура - максимум температуры воздуха на высоте 2 м над землей.
R - Количество осадков - Количество выпавших осадков за период времени, мм. При наведении курсора мыши на число - период времени, за который выпало указанное количество осадков.
R24 - Количество осадков - Количество выпавших осадков за 24 часа, мм.
S - Снежный покров - Высота снежного покрова, см. При наведении курсора мыши на число - состояние снежного покрова и степень покрытия местности в баллах.